Location: Chapel Hill
(35.9134°N, 79.0560°W)
Time: 02:31:03
(UTC-05:00)

Tiangong - Visible Passes

Search period start: 23 February 2024 00:00
Search period end: 04 March 2024 00:00
Orbit: 375 x 387 km, 41.5° (Epoch: 22 February)

Date Brightness Start Highest point End Pass type
(mag) Time Alt. Az. Time Alt. Az. Time Alt. Az.
25 Feb -0.1 19:12:53 10° S 19:14:38 15° SSE 19:14:38 15° SSE visible
26 Feb -0.8 19:47:17 10° SW 19:49:14 33° SSW 19:49:14 33° SSW visible
27 Feb -0.9 18:46:43 10° SSW 18:49:24 27° SSE 18:51:31 14° E visible
27 Feb 1.0 20:23:00 10° W 20:23:40 15° W 20:23:40 15° W visible
28 Feb -2.3 19:21:49 10° WSW 19:24:55 86° NNW 19:25:48 43° ENE visible
29 Feb -0.5 19:57:42 10° W 19:59:57 32° NW 19:59:57 32° NW visible
01 Mar -1.7 18:56:17 10° W 18:59:20 54° NNW 19:01:49 14° ENE visible
01 Mar 1.3 20:33:41 10° WNW 20:33:57 12° WNW 20:33:57 12° WNW visible
02 Mar -0.8 19:32:12 10° WNW 19:34:59 30° N 19:35:43 27° NNE visible
03 Mar 0.2 20:07:57 10° WNW 20:09:30 21° NW 20:09:30 21° NW visible
